Location: CCZU
(31.6840°N, 119.9550°E)
Time: 04:23:27
(UTC+08:00)

ISS - Visible Passes

Search period start: 23 April 2019 00:00
Search period end: 03 May 2019 00:00
Orbit: 408 x 410 km, 51.6° (Epoch: 23 April)

Date Brightness Start Highest point End Pass type
(mag) Time Alt. Az. Time Alt. Az. Time Alt. Az.
25 Apr -1.3 04:34:23 10° S 04:36:47 19° SE 04:39:11 10° E visible
27 Apr -3.5 04:28:41 13° SSW 04:31:31 63° SE 04:34:48 10° NE visible
28 Apr -2.3 03:40:11 26° SSE 03:40:47 27° SE 03:43:39 10° ENE visible
29 Apr -0.6 02:51:35 11° E 02:51:35 11° E 02:51:46 10° E visible
29 Apr -3.0 04:24:21 18° WSW 04:26:23 38° NW 04:29:30 10° NNE visible
30 Apr -3.8 03:35:38 80° N 03:35:38 80° N 03:38:48 10° NE visible
01 May -0.9 02:46:50 17° ENE 02:46:50 17° ENE 02:47:50 10° ENE visible
01 May -1.6 04:19:35 11° WNW 04:21:24 16° NW 04:23:30 10° N visible
02 May -2.2 03:30:42 26° NNW 03:30:42 26° NNW 03:33:15 10° NNE visible
